,,,PA_Meas_PMT16A,,PR_Meas_QMR101_102,,RH_Meas_QMH101,,SR_Meas_QMS101,,TA_Meas_QMH101,,GenWind,,GenWind,
date,time,status,PA,status,PR,status,RH,status,SR,status,TA,status,DirAvg,status,SpdAvg,
2010-05-28, 00:00:04,VALID,1006.57,VALID,0,VALID,97.909,VALID,0,VALID,24.4414,VALID,345,VALID,0.374219,
2010-05-28, 00:01:04,VALID,1006.55,VALID,0,VALID,97.8862,VALID,0.100563,VALID,24.4609,VALID,345,VALID,0.343359,
2010-05-28, 00:02:04,VALID,1006.53,VALID,0,VALID,97.8633,VALID,0,VALID,24.4804,VALID,345,VALID,0.354688,
2010-05-28, 00:03:04,VALID,1006.51,VALID,0,VALID,97.8938,VALID,0,VALID,24.5017,VALID,345,VALID,0.351563,
2010-05-28, 00:04:04,VALID,1006.52,VALID,0,VALID,97.909,VALID,0,VALID,24.4414,VALID,345,VALID,0.439063,
2010-05-28, 00:05:04,VALID,1006.44,VALID,0,VALID,97.9243,VALID,0,VALID,24.4433,VALID,345,VALID,0.534375,
2010-05-28, 00:06:04,VALID,1006.46,VALID,0,VALID,97.9319,VALID,0.100563,VALID,24.383,VALID,345,VALID,0.519531,
2010-05-28, 00:07:04,VALID,1006.49,VALID,0,VALID,97.9243,VALID,0.100563,VALID,24.383,VALID,346,VALID,0.694141,
2010-05-28, 00:08:04,VALID,1006.48,VALID,0,VALID,97.9167,VALID,0,VALID,24.383,VALID,356,VALID,0.616016,
2010-05-28, 00:09:04,VALID,1006.5,VALID,0,VALID,97.9319,VALID,0,VALID,24.3849,VALID,356,VALID,0.485156,
2010-05-28, 00:10:04,VALID,1006.49,VALID,0,VALID,97.909,VALID,0.100563,VALID,24.383,VALID,356,VALID,0.533594,
2010-05-28, 00:11:04,VALID,1006.5,VALID,0,VALID,97.9014,VALID,0.100563,VALID,24.3617,VALID,356,VALID,0.678125,
2010-05-28, 00:12:04,VALID,1006.49,VALID,0,VALID,97.9014,VALID,0.100563,VALID,24.3617,VALID,356,VALID,0.7375,
2010-05-28, 00:13:04,VALID,1006.51,VALID,0,VALID,97.9014,VALID,0,VALID,24.383,VALID,356,VALID,0.792969,
2010-05-28, 00:14:04,VALID,1006.47,VALID,0,VALID,97.8862,VALID,0,VALID,24.4025,VALID,355,VALID,0.626953,
2010-05-28, 00:15:04,VALID,1006.49,VALID,0,VALID,97.8785,VALID,0.100563,VALID,24.422,VALID,355,VALID,0.589844,
2010-05-28, 00:16:04,VALID,1006.47,VALID,0,VALID,97.8633,VALID,0,VALID,24.422,VALID,355,VALID,0.466016,
2010-05-28, 00:17:04,VALID,1006.48,VALID,0,VALID,97.8938,VALID,0,VALID,24.422,VALID,355,VALID,0.523047,
2010-05-28, 00:18:04,VALID,1006.49,VALID,0,VALID,97.9014,VALID,0.100563,VALID,24.4025,VALID,355,VALID,0.539453,
2010-05-28, 00:19:04,VALID,1006.49,VALID,0,VALID,97.8938,VALID,0.100563,VALID,24.422,VALID,355,VALID,0.540625,
2010-05-28, 00:20:04,VALID,1006.45,VALID,0,VALID,97.9167,VALID,0.100563,VALID,24.4025,VALID,355,VALID,0.463672,
2010-05-28, 00:21:04,VALID,1006.43,VALID,0,VALID,97.8938,VALID,0.100563,VALID,24.422,VALID,356,VALID,0.536719,
2010-05-28, 00:22:04,VALID,1006.43,VALID,0,VALID,97.8251,VALID,0.100563,VALID,24.4804,VALID,356,VALID,0.749609,
2010-05-28, 00:23:04,VALID,1006.44,VALID,0,VALID,97.8328,VALID,0.100563,VALID,24.4804,VALID,355,VALID,0.624609,
2010-05-28, 00:24:04,VALID,1006.42,VALID,0,VALID,97.848,VALID,0,VALID,24.5212,VALID,350,VALID,0.521094,
2010-05-28, 00:25:04,VALID,1006.41,VALID,0,VALID,97.8633,VALID,0,VALID,24.5212,VALID,350,VALID,0.573828,
2010-05-28, 00:26:04,VALID,1006.39,VALID,0,VALID,97.848,VALID,0,VALID,24.4998,VALID,349,VALID,0.50625,
2010-05-28, 00:27:04,VALID,1006.37,VALID,0,VALID,97.848,VALID,0.100563,VALID,24.5388,VALID,350,VALID,0.5625,
2010-05-28, 00:28:04,VALID,1006.36,VALID,0,VALID,97.8328,VALID,0,VALID,24.5388,VALID,356,VALID,0.661719,
2010-05-28, 00:29:04,VALID,1006.37,VALID,0,VALID,97.8557,VALID,0,VALID,24.5388,VALID,356,VALID,0.612891,
2010-05-28, 00:30:04,VALID,1006.39,VALID,0,VALID,97.8785,VALID,0,VALID,24.5406,VALID,356,VALID,0.66875,
2010-05-28, 00:31:04,VALID,1006.39,VALID,0,VALID,97.8862,VALID,0,VALID,24.5193,VALID,358,VALID,0.660547,
2010-05-28, 00:32:04,VALID,1006.39,VALID,0,VALID,97.9014,VALID,0.100563,VALID,24.4998,VALID,358,VALID,0.655859,
2010-05-28, 00:33:04,VALID,1006.35,VALID,0,VALID,97.9014,VALID,0.100563,VALID,24.4804,VALID,358,VALID,0.604297,
2010-05-28, 00:34:04,VALID,1006.31,VALID,0,VALID,97.909,VALID,0,VALID,24.4609,VALID,358,VALID,0.455078,
2010-05-28, 00:35:04,VALID,1006.3,VALID,0,VALID,97.9243,VALID,0,VALID,24.4396,VALID,358,VALID,0.461719,
2010-05-28, 00:36:04,VALID,1006.26,VALID,0,VALID,97.9243,VALID,0,VALID,24.4396,VALID,358,VALID,0.420703,
2010-05-28, 00:37:04,VALID,1006.25,VALID,0,VALID,97.9319,VALID,0,VALID,24.422,VALID,358,VALID,0.415625,
2010-05-28, 00:38:04,VALID,1006.25,VALID,0,VALID,97.9396,VALID,0.100563,VALID,24.4025,VALID,358,VALID,0.444531,
2010-05-28, 00:39:04,VALID,1006.24,VALID,0,VALID,97.9243,VALID,0.100563,VALID,24.4433,VALID,358,VALID,0.45625,
2010-05-28, 00:40:04,VALID,1006.22,VALID,0,VALID,97.9243,VALID,0,VALID,24.422,VALID,358,VALID,0.384375,
2010-05-28, 00:41:04,VALID,1006.22,VALID,0,VALID,97.909,VALID,0,VALID,24.422,VALID,358,VALID,0.405859,
2010-05-28, 00:42:04,VALID,1006.23,VALID,0,VALID,97.9243,VALID,0,VALID,24.4025,VALID,358,VALID,0.2625,
2010-05-28, 00:43:04,VALID,1006.25,VALID,0,VALID,97.8862,VALID,0,VALID,24.4433,VALID,358,VALID,0.449219,
2010-05-28, 00:44:04,VALID,1006.24,VALID,0,VALID,97.909,VALID,0.100563,VALID,24.4433,VALID,358,VALID,0.326953,
2010-05-28, 00:45:04,VALID,1006.22,VALID,0,VALID,97.909,VALID,0,VALID,24.422,VALID,358,VALID,0.190625,
2010-05-28, 00:46:04,VALID,1006.22,VALID,0,VALID,97.8862,VALID,0,VALID,24.4628,VALID,358,VALID,0.127734,
2010-05-28, 00:47:04,VALID,1006.2,VALID,0,VALID,97.9014,VALID,0,VALID,24.4414,VALID,358,VALID,0.0980469,
2010-05-28, 00:48:04,VALID,1006.18,VALID,0,VALID,97.8862,VALID,0,VALID,24.422,VALID,358,VALID,0,
2010-05-28, 00:49:04,VALID,1006.15,VALID,0,VALID,97.8709,VALID,0,VALID,24.4414,VALID,358,VALID,0,
2010-05-28, 00:50:04,VALID,1006.13,VALID,0,VALID,97.8785,VALID,0,VALID,24.4628,VALID,358,VALID,0,
2010-05-28, 00:51:04,VALID,1006.1,VALID,0,VALID,97.8862,VALID,0,VALID,24.4414,VALID,358,VALID,0.365625,
2010-05-28, 00:52:04,VALID,1006.08,VALID,0,VALID,97.9014,VALID,0,VALID,24.4609,VALID,358,VALID,0.29375,
2010-05-28, 00:53:04,VALID,1006.07,VALID,0,VALID,97.8938,VALID,0,VALID,24.4609,VALID,358,VALID,0.244922,
2010-05-28, 00:54:04,VALID,1006,VALID,0,VALID,97.8785,VALID,0,VALID,24.4609,VALID,358,VALID,0.304688,
2010-05-28, 00:55:04,VALID,1005.98,VALID,0,VALID,97.8785,VALID,0,VALID,24.4414,VALID,358,VALID,0.311719,
2010-05-28, 00:56:04,VALID,1005.98,VALID,0,VALID,97.8938,VALID,0,VALID,24.4628,VALID,358,VALID,0.214062,
2010-05-28, 00:57:04,VALID,1005.96,VALID,0,VALID,97.8862,VALID,0,VALID,24.4628,VALID,358,VALID,0.259375,
2010-05-28, 00:58:04,VALID,1005.93,VALID,0,VALID,97.9243,VALID,0,VALID,24.4238,VALID,358,VALID,0.216016,
2010-05-28, 00:59:04,VALID,1005.93,VALID,0,VALID,97.909,VALID,0,VALID,24.4238,VALID,358,VALID,0.305469,
2010-05-28, 01:00:04,VALID,1005.92,VALID,0,VALID,97.9167,VALID,0,VALID,24.4025,VALID,358,VALID,0.367969,
2010-05-28, 01:01:04,VALID,1005.93,VALID,0,VALID,97.9014,VALID,0,VALID,24.4433,VALID,358,VALID,0.33125,
2010-05-28, 01:02:04,VALID,1005.9,VALID,0,VALID,97.8785,VALID,0,VALID,24.4433,VALID,358,VALID,0.136328,
2010-05-28, 01:03:04,VALID,1005.93,VALID,0,VALID,97.8785,VALID,0,VALID,24.4433,VALID,358,VALID,0,
2010-05-28, 01:04:04,VALID,1005.92,VALID,0,VALID,97.8785,VALID,0,VALID,24.4628,VALID,358,VALID,0,
2010-05-28, 01:05:04,VALID,1005.89,VALID,0,VALID,97.8862,VALID,0,VALID,24.4609,VALID,358,VALID,0,
2010-05-28, 01:06:04,VALID,1005.87,VALID,0,VALID,97.8785,VALID,0,VALID,24.4609,VALID,358,VALID,0,
2010-05-28, 01:07:04,VALID,1005.85,VALID,0,VALID,97.8938,VALID,0,VALID,24.4628,VALID,358,VALID,0,
2010-05-28, 01:08:04,VALID,1005.86,VALID,0,VALID,97.8938,VALID,0,VALID,24.4628,VALID,358,VALID,0,
2010-05-28, 01:09:04,VALID,1005.84,VALID,0,VALID,97.8862,VALID,0,VALID,24.4609,VALID,358,VALID,0,
2010-05-28, 01:10:04,VALID,1005.84,VALID,0,VALID,97.8785,VALID,0,VALID,24.4998,VALID,358,VALID,0.0960938,
2010-05-28, 01:11:04,VALID,1005.84,VALID,0,VALID,97.848,VALID,0,VALID,24.5193,VALID,358,VALID,0.246484,
2010-05-28, 01:12:04,VALID,1005.81,VALID,0,VALID,97.848,VALID,0,VALID,24.5388,VALID,358,VALID,0.294531,
2010-05-28, 01:13:04,VALID,1005.81,VALID,0,VALID,97.848,VALID,0,VALID,24.5582,VALID,358,VALID,0.384375,
2010-05-28, 01:14:04,VALID,1005.81,VALID,0,VALID,97.8557,VALID,0,VALID,24.5582,VALID,358,VALID,0.409766,
2010-05-28, 01:15:04,VALID,1005.78,VALID,0,VALID,97.848,VALID,0,VALID,24.5582,VALID,358,VALID,0.467187,
2010-05-28, 01:16:04,VALID,1005.78,VALID,0,VALID,97.8404,VALID,0,VALID,24.5601,VALID,358,VALID,0.374609,
2010-05-28, 01:17:04,VALID,1005.78,VALID,0,VALID,97.8862,VALID,0,VALID,24.4998,VALID,358,VALID,0.401563,
2010-05-28, 01:18:04,VALID,1005.77,VALID,0,VALID,97.909,VALID,0,VALID,24.4804,VALID,358,VALID,0.384766,
2010-05-28, 01:19:04,VALID,1005.79,VALID,0,VALID,97.9396,VALID,0,VALID,24.4822,VALID,358,VALID,0.443359,
2010-05-28, 01:20:04,VALID,1005.79,VALID,0,VALID,97.9319,VALID,0,VALID,24.4414,VALID,358,VALID,0.427344,
2010-05-28, 01:21:04,VALID,1005.76,VALID,0,VALID,97.9319,VALID,0,VALID,24.4609,VALID,358,VALID,0.390625,
2010-05-28, 01:22:04,VALID,1005.72,VALID,0,VALID,97.8938,VALID,0,VALID,24.4822,VALID,358,VALID,0.355859,
2010-05-28, 01:23:04,VALID,1005.72,VALID,0,VALID,97.9167,VALID,0,VALID,24.422,VALID,358,VALID,0.382031,
2010-05-28, 01:24:04,VALID,1005.7,VALID,0,VALID,97.9243,VALID,0,VALID,24.4414,VALID,358,VALID,0.356641,
2010-05-28, 01:25:04,VALID,1005.7,VALID,0,VALID,97.9014,VALID,0,VALID,24.4822,VALID,358,VALID,0.35,
2010-05-28, 01:26:04,VALID,1005.71,VALID,0,VALID,97.909,VALID,0,VALID,24.4609,VALID,358,VALID,0.367188,
2010-05-28, 01:27:04,VALID,1005.67,VALID,0,VALID,97.9014,VALID,0,VALID,24.4628,VALID,358,VALID,0.431641,
2010-05-28, 01:28:04,VALID,1005.69,VALID,0,VALID,97.8938,VALID,0,VALID,24.4609,VALID,358,VALID,0.439844,
2010-05-28, 01:29:04,VALID,1005.67,VALID,0,VALID,97.9319,VALID,0,VALID,24.4414,VALID,358,VALID,0.551562,
2010-05-28, 01:30:04,VALID,1005.66,VALID,0,VALID,97.9243,VALID,0,VALID,24.4433,VALID,358,VALID,0.513672,
2010-05-28, 01:31:04,VALID,1005.61,VALID,0,VALID,97.8938,VALID,0,VALID,24.4414,VALID,358,VALID,0.556641,
2010-05-28, 01:32:04,VALID,1005.6,VALID,0,VALID,97.8709,VALID,0,VALID,24.4609,VALID,358,VALID,0.516016,
2010-05-28, 01:33:04,VALID,1005.56,VALID,0,VALID,97.8785,VALID,0,VALID,24.4201,VALID,358,VALID,0.514063,
2010-05-28, 01:34:04,VALID,1005.52,VALID,0,VALID,97.8938,VALID,0,VALID,24.4414,VALID,358,VALID,0.426172,
2010-05-28, 01:35:04,VALID,1005.5,VALID,0,VALID,97.909,VALID,0,VALID,24.422,VALID,358,VALID,0.473047,
2010-05-28, 01:36:04,VALID,1005.47,VALID,0,VALID,97.9243,VALID,0,VALID,24.383,VALID,358,VALID,0.416406,
2010-05-28, 01:37:04,VALID,1005.44,VALID,0,VALID,97.9243,VALID,0.100563,VALID,24.4025,VALID,358,VALID,0.4375,
2010-05-28, 01:38:04,VALID,1005.43,VALID,0,VALID,97.909,VALID,0,VALID,24.383,VALID,358,VALID,0.292188,
2010-05-28, 01:39:04,VALID,1005.4,VALID,0,VALID,97.909,VALID,0,VALID,24.383,VALID,358,VALID,0.308594,
2010-05-28, 01:40:04,VALID,1005.42,VALID,0,VALID,97.909,VALID,0,VALID,24.383,VALID,358,VALID,0.159375,
2010-05-28, 01:41:04,VALID,1005.39,VALID,0,VALID,97.909,VALID,0,VALID,24.383,VALID,358,VALID,0.403906,
2010-05-28, 01:42:04,VALID,1005.39,VALID,0,VALID,97.9167,VALID,0,VALID,24.383,VALID,358,VALID,0.458203,
2010-05-28, 01:43:04,VALID,1005.36,VALID,0,VALID,97.909,VALID,0,VALID,24.383,VALID,358,VALID,0.448438,
2010-05-28, 01:44:04,VALID,1005.35,VALID,0,VALID,97.909,VALID,0,VALID,24.4025,VALID,358,VALID,0.369531,
2010-05-28, 01:45:04,VALID,1005.32,VALID,0,VALID,97.8633,VALID,0,VALID,24.4025,VALID,358,VALID,0.229687,
2010-05-28, 01:46:04,VALID,1005.31,VALID,0,VALID,97.8862,VALID,0,VALID,24.422,VALID,358,VALID,0.225,
2010-05-28, 01:47:04,VALID,1005.3,VALID,0,VALID,97.8938,VALID,0,VALID,24.4043,VALID,358,VALID,0.254297,
2010-05-28, 01:48:04,VALID,1005.29,VALID,0,VALID,97.9243,VALID,0,VALID,24.3636,VALID,358,VALID,0.383594,
2010-05-28, 01:49:04,VALID,1005.31,VALID,0,VALID,97.9396,VALID,0,VALID,24.3636,VALID,358,VALID,0.502344,
2010-05-28, 01:50:04,VALID,1005.27,VALID,0,VALID,97.9319,VALID,0,VALID,24.3459,VALID,358,VALID,0.438281,
2010-05-28, 01:51:04,VALID,1005.31,VALID,0,VALID,97.9396,VALID,0,VALID,24.3441,VALID,358,VALID,0.348828,
2010-05-28, 01:52:04,VALID,1005.31,VALID,0,VALID,97.9319,VALID,0,VALID,24.3246,VALID,358,VALID,0.380469,
2010-05-28, 01:53:04,VALID,1005.29,VALID,0,VALID,97.9472,VALID,0,VALID,24.3052,VALID,358,VALID,0.344141,
2010-05-28, 01:54:04,VALID,1005.31,VALID,0,VALID,97.9472,VALID,0,VALID,24.2857,VALID,358,VALID,0.356641,
2010-05-28, 01:55:04,VALID,1005.31,VALID,0,VALID,97.9243,VALID,0,VALID,24.2857,VALID,358,VALID,0.239063,
2010-05-28, 01:56:04,VALID,1005.29,VALID,0,VALID,97.9319,VALID,0,VALID,24.2662,VALID,358,VALID,0.351172,
2010-05-28, 01:57:04,VALID,1005.28,VALID,0,VALID,97.9472,VALID,0,VALID,24.2662,VALID,358,VALID,0.338281,
2010-05-28, 01:58:04,VALID,1005.25,VALID,0,VALID,97.9472,VALID,0,VALID,24.2875,VALID,358,VALID,0.398047,
2010-05-28, 01:59:04,VALID,1005.22,VALID,0,VALID,97.9167,VALID,0,VALID,24.2875,VALID,358,VALID,0.409375,
2010-05-28, 02:00:04,VALID,1005.18,VALID,0,VALID,97.909,VALID,0,VALID,24.2857,VALID,358,VALID,0.339063,
2010-05-28, 02:01:04,VALID,1005.14,VALID,0,VALID,97.9167,VALID,0,VALID,24.3052,VALID,358,VALID,0.345313,
2010-05-28, 02:02:04,VALID,1005.14,VALID,0,VALID,97.9167,VALID,0,VALID,24.3265,VALID,358,VALID,0.310156,
2010-05-28, 02:03:04,VALID,1005.13,VALID,0,VALID,97.9319,VALID,0,VALID,24.2857,VALID,358,VALID,0.21875,
2010-05-28, 02:04:04,VALID,1005.11,VALID,0,VALID,97.9625,VALID,0,VALID,24.2662,VALID,358,VALID,0.332812,
2010-05-28, 02:05:04,VALID,1005.12,VALID,0,VALID,97.9548,VALID,0,VALID,24.2273,VALID,358,VALID,0.233594,
2010-05-28, 02:06:04,VALID,1005.11,VALID,0,VALID,97.9548,VALID,0,VALID,24.2486,VALID,358,VALID,0.335156,
2010-05-28, 02:07:04,VALID,1005.13,VALID,0,VALID,97.9548,VALID,0,VALID,24.2273,VALID,358,VALID,0.310156,
2010-05-28, 02:08:04,VALID,1005.12,VALID,0,VALID,97.9319,VALID,0,VALID,24.2273,VALID,358,VALID,0.4,
2010-05-28, 02:09:04,VALID,1005.12,VALID,0,VALID,97.9167,VALID,0,VALID,24.2875,VALID,358,VALID,0.462891,
2010-05-28, 02:10:04,VALID,1005.12,VALID,0,VALID,97.9167,VALID,0,VALID,24.2468,VALID,357,VALID,0.683203,
2010-05-28, 02:11:04,VALID,1005.11,VALID,0,VALID,97.9472,VALID,0,VALID,24.2468,VALID,355,VALID,0.416406,
2010-05-28, 02:12:04,VALID,1005.1,VALID,0,VALID,97.9472,VALID,0,VALID,24.2273,VALID,350,VALID,0.534375,
2010-05-28, 02:13:04,VALID,1005.07,VALID,0,VALID,97.8938,VALID,0,VALID,24.2662,VALID,348,VALID,0.373437,
2010-05-28, 02:14:04,VALID,1005.07,VALID,0,VALID,97.8938,VALID,0.100563,VALID,24.3052,VALID,350,VALID,0.498047,
2010-05-28, 02:15:04,VALID,1005.03,VALID,0,VALID,97.8862,VALID,0,VALID,24.3459,VALID,350,VALID,0.442187,
2010-05-28, 02:16:04,VALID,1005.02,VALID,0,VALID,97.9014,VALID,0,VALID,24.3246,VALID,350,VALID,0.388672,
2010-05-28, 02:17:04,VALID,1005,VALID,0,VALID,97.9243,VALID,0.100563,VALID,24.3052,VALID,350,VALID,0.5125,
2010-05-28, 02:18:04,VALID,1004.98,VALID,0,VALID,97.9167,VALID,0,VALID,24.3052,VALID,350,VALID,0.419141,
2010-05-28, 02:19:04,VALID,1004.98,VALID,0,VALID,97.9243,VALID,0.100563,VALID,24.307,VALID,350,VALID,0.389844,
2010-05-28, 02:20:04,VALID,1004.94,VALID,0,VALID,97.9472,VALID,0,VALID,24.2857,VALID,350,VALID,0.496484,
2010-05-28, 02:21:04,VALID,1004.9,VALID,0,VALID,97.9472,VALID,0,VALID,24.2662,VALID,350,VALID,0.516016,
2010-05-28, 02:22:04,VALID,1004.87,VALID,0,VALID,97.9396,VALID,0,VALID,24.2662,VALID,350,VALID,0.303906,
2010-05-28, 02:23:04,VALID,1004.84,VALID,0,VALID,97.9701,VALID,0,VALID,24.2468,VALID,350,VALID,0.325781,
2010-05-28, 02:24:04,VALID,1004.81,VALID,0,VALID,97.9701,VALID,0.100563,VALID,24.2468,VALID,350,VALID,0.296875,
2010-05-28, 02:25:04,VALID,1004.82,VALID,0,VALID,97.9396,VALID,0,VALID,24.2273,VALID,350,VALID,0.351563,
2010-05-28, 02:26:04,VALID,1004.84,VALID,0,VALID,97.9548,VALID,0,VALID,24.2273,VALID,350,VALID,0.386719,
2010-05-28, 02:27:04,VALID,1004.83,VALID,0,VALID,97.9777,VALID,0,VALID,24.2291,VALID,350,VALID,0.626562,
2010-05-28, 02:28:04,VALID,1004.84,VALID,0,VALID,97.9625,VALID,0,VALID,24.2486,VALID,350,VALID,0.757813,
2010-05-28, 02:29:04,VALID,1004.84,VALID,0,VALID,97.909,VALID,0,VALID,24.2894,VALID,349,VALID,0.792188,
2010-05-28, 02:30:04,VALID,1004.83,VALID,0,VALID,97.9167,VALID,0,VALID,24.2857,VALID,345,VALID,0.738672,
2010-05-28, 02:31:04,VALID,1004.8,VALID,0,VALID,97.8938,VALID,0,VALID,24.2662,VALID,345,VALID,0.703906,
2010-05-28, 02:32:04,VALID,1004.77,VALID,0,VALID,97.9014,VALID,0,VALID,24.3052,VALID,345,VALID,0.674609,
2010-05-28, 02:33:04,VALID,1004.8,VALID,0,VALID,97.9167,VALID,0,VALID,24.3052,VALID,345,VALID,0.544141,
2010-05-28, 02:34:04,VALID,1004.8,VALID,0,VALID,97.9319,VALID,0,VALID,24.3265,VALID,345,VALID,0.554688,
2010-05-28, 02:35:04,VALID,1004.77,VALID,0,VALID,97.9243,VALID,0,VALID,24.2662,VALID,345,VALID,0.534766,
2010-05-28, 02:36:04,VALID,1004.76,VALID,0,VALID,97.9625,VALID,0.100563,VALID,24.2662,VALID,349,VALID,0.620313,
2010-05-28, 02:37:04,VALID,1004.76,VALID,0,VALID,97.9625,VALID,0,VALID,24.2662,VALID,351,VALID,0.446875,
2010-05-28, 02:38:04,VALID,1004.74,VALID,0,VALID,97.9625,VALID,0,VALID,24.2681,VALID,351,VALID,0.447266,
2010-05-28, 02:39:04,VALID,1004.72,VALID,0,VALID,97.9548,VALID,0,VALID,24.2486,VALID,351,VALID,0.291406,
2010-05-28, 02:40:04,VALID,1004.71,VALID,0,VALID,97.9701,VALID,0,VALID,24.2273,VALID,351,VALID,0.228516,
2010-05-28, 02:41:04,VALID,1004.66,VALID,0,VALID,97.9701,VALID,0,VALID,24.2078,VALID,351,VALID,0.23125,
2010-05-28, 02:42:04,VALID,1004.72,VALID,0,VALID,97.993,VALID,0,VALID,24.1884,VALID,351,VALID,0.344141,
2010-05-28, 02:43:04,VALID,1004.71,VALID,0,VALID,97.9701,VALID,0,VALID,24.1671,VALID,351,VALID,0.440234,
2010-05-28, 02:44:04,VALID,1004.71,VALID,0,VALID,97.9625,VALID,0,VALID,24.2097,VALID,351,VALID,0.559375,
2010-05-28, 02:45:04,VALID,1004.73,VALID,0,VALID,97.9472,VALID,0,VALID,24.2078,VALID,351,VALID,0.620313,
2010-05-28, 02:46:04,VALID,1004.72,VALID,0,VALID,97.9167,VALID,0,VALID,24.2681,VALID,351,VALID,0.364844,
2010-05-28, 02:47:04,VALID,1004.75,VALID,0,VALID,97.9472,VALID,0,VALID,24.2486,VALID,351,VALID,0.437891,
2010-05-28, 02:48:04,VALID,1004.73,VALID,0,VALID,97.9472,VALID,0,VALID,24.2273,VALID,351,VALID,0.381641,
2010-05-28, 02:49:04,VALID,1004.72,VALID,0,VALID,97.909,VALID,0,VALID,24.2468,VALID,351,VALID,0.228125,
2010-05-28, 02:50:04,VALID,1004.73,VALID,0,VALID,97.9167,VALID,0,VALID,24.2681,VALID,351,VALID,0,
2010-05-28, 02:51:04,VALID,1004.68,VALID,0,VALID,97.9396,VALID,0,VALID,24.2273,VALID,351,VALID,0,
2010-05-28, 02:52:04,VALID,1004.67,VALID,0,VALID,97.9472,VALID,0.100563,VALID,24.2273,VALID,351,VALID,0.000390625,
2010-05-28, 02:53:04,VALID,1004.66,VALID,0,VALID,97.9396,VALID,0,VALID,24.2273,VALID,351,VALID,0.290234,
2010-05-28, 02:54:04,VALID,1004.64,VALID,0,VALID,97.9243,VALID,0,VALID,24.2468,VALID,351,VALID,0.224609,
2010-05-28, 02:55:04,VALID,1004.67,VALID,0,VALID,97.9319,VALID,0,VALID,24.2273,VALID,351,VALID,0.417188,
2010-05-28, 02:56:04,VALID,1004.7,VALID,0,VALID,97.9472,VALID,0,VALID,24.2486,VALID,351,VALID,0.421094,
2010-05-28, 02:57:04,VALID,1004.71,VALID,0,VALID,97.9396,VALID,0,VALID,24.2273,VALID,354,VALID,0.684766,
2010-05-28, 02:58:04,VALID,1004.74,VALID,0,VALID,97.9548,VALID,0,VALID,24.2291,VALID,2,VALID,0.739844,
2010-05-28, 02:59:04,VALID,1004.77,VALID,0,VALID,97.9777,VALID,0,VALID,24.1902,VALID,2,VALID,0.751953,
2010-05-28, 03:00:04,VALID,1004.77,VALID,0,VALID,97.9853,VALID,0,VALID,24.13,VALID,2,VALID,0.749609,
2010-05-28, 03:01:04,VALID,1004.77,VALID,0,VALID,97.9625,VALID,0,VALID,24.1902,VALID,2,VALID,0.633594,
2010-05-28, 03:02:04,VALID,1004.71,VALID,0,VALID,97.8862,VALID,0,VALID,24.2078,VALID,354,VALID,0.619531,
2010-05-28, 03:03:04,VALID,1004.71,VALID,0,VALID,97.8404,VALID,0,VALID,24.3052,VALID,346,VALID,0.727734,
2010-05-28, 03:04:04,VALID,1004.7,VALID,0,VALID,97.8175,VALID,0,VALID,24.3849,VALID,349,VALID,0.582031,
2010-05-28, 03:05:04,VALID,1004.67,VALID,0,VALID,97.848,VALID,0,VALID,24.3636,VALID,350,VALID,0.333984,
2010-05-28, 03:06:04,VALID,1004.67,VALID,0,VALID,97.8938,VALID,0.100563,VALID,24.3246,VALID,350,VALID,0.342969,
2010-05-28, 03:07:04,VALID,1004.66,VALID,0,VALID,97.8862,VALID,0,VALID,24.3246,VALID,350,VALID,0.455469,
2010-05-28, 03:08:04,VALID,1004.69,VALID,0,VALID,97.9243,VALID,0,VALID,24.3052,VALID,353,VALID,0.589063,
2010-05-28, 03:09:04,VALID,1004.73,VALID,0,VALID,97.9319,VALID,0,VALID,24.307,VALID,3,VALID,0.715625,
2010-05-28, 03:10:04,VALID,1004.76,VALID,0,VALID,97.909,VALID,0,VALID,24.3052,VALID,3,VALID,0.594922,
2010-05-28, 03:11:04,VALID,1004.77,VALID,0,VALID,97.9167,VALID,0,VALID,24.2857,VALID,3,VALID,0.503125,
2010-05-28, 03:12:04,VALID,1004.8,VALID,0,VALID,97.8938,VALID,0,VALID,24.2857,VALID,3,VALID,0.530859,
2010-05-28, 03:13:04,VALID,1004.81,VALID,0,VALID,97.9014,VALID,0.100563,VALID,24.3265,VALID,3,VALID,0.526563,
2010-05-28, 03:14:04,VALID,1004.79,VALID,0,VALID,97.8938,VALID,0,VALID,24.3052,VALID,3,VALID,0.487109,
2010-05-28, 03:15:04,VALID,1004.8,VALID,0,VALID,97.9014,VALID,0,VALID,24.3246,VALID,3,VALID,0.238672,
2010-05-28, 03:16:04,VALID,1004.83,VALID,0,VALID,97.9014,VALID,0,VALID,24.3052,VALID,3,VALID,0.310156,
2010-05-28, 03:17:04,VALID,1004.82,VALID,0,VALID,97.8938,VALID,0.100563,VALID,24.3052,VALID,3,VALID,0.152734,
2010-05-28, 03:18:04,VALID,1004.81,VALID,0,VALID,97.8938,VALID,0,VALID,24.3654,VALID,3,VALID,0.239063,
2010-05-28, 03:19:04,VALID,1004.81,VALID,0,VALID,97.8862,VALID,0,VALID,24.3246,VALID,3,VALID,0.310937,
2010-05-28, 03:20:04,VALID,1004.79,VALID,0,VALID,97.8938,VALID,0,VALID,24.3246,VALID,3,VALID,0.226953,
2010-05-28, 03:21:04,VALID,1004.79,VALID,0,VALID,97.909,VALID,0,VALID,24.3246,VALID,3,VALID,0.121484,
2010-05-28, 03:22:04,VALID,1004.78,VALID,0,VALID,97.9014,VALID,0,VALID,24.3052,VALID,3,VALID,0.153125,
2010-05-28, 03:23:04,VALID,1004.8,VALID,0,VALID,97.9167,VALID,0.100563,VALID,24.3052,VALID,3,VALID,0.161328,
2010-05-28, 03:24:04,VALID,1004.79,VALID,0,VALID,97.909,VALID,0,VALID,24.307,VALID,3,VALID,0.182031,
2010-05-28, 03:25:04,VALID,1004.81,VALID,0,VALID,97.9014,VALID,0,VALID,24.3052,VALID,3,VALID,0.103906,
2010-05-28, 03:26:04,VALID,1004.82,VALID,0,VALID,97.8938,VALID,0,VALID,24.3441,VALID,3,VALID,0.201953,
2010-05-28, 03:27:04,VALID,1004.84,VALID,0,VALID,97.8633,VALID,0,VALID,24.3636,VALID,3,VALID,0.210547,
2010-05-28, 03:28:04,VALID,1004.88,VALID,0,VALID,97.8557,VALID,0,VALID,24.4025,VALID,3,VALID,0.283984,
2010-05-28, 03:29:04,VALID,1004.88,VALID,0,VALID,97.8709,VALID,0,VALID,24.383,VALID,3,VALID,0.357812,
2010-05-28, 03:30:04,VALID,1004.9,VALID,0,VALID,97.8633,VALID,0,VALID,24.4433,VALID,3,VALID,0.429688,
2010-05-28, 03:31:04,VALID,1004.9,VALID,0,VALID,97.8557,VALID,0,VALID,24.4025,VALID,3,VALID,0.278125,
2010-05-28, 03:32:04,VALID,1004.89,VALID,0,VALID,97.8938,VALID,0.100563,VALID,24.383,VALID,3,VALID,0.358594,
2010-05-28, 03:33:04,VALID,1004.91,VALID,0,VALID,97.9014,VALID,0,VALID,24.383,VALID,3,VALID,0.248437,
2010-05-28, 03:34:04,VALID,1004.88,VALID,0,VALID,97.8785,VALID,0,VALID,24.3849,VALID,3,VALID,0.125,
2010-05-28, 03:35:04,VALID,1004.91,VALID,0,VALID,97.8709,VALID,0,VALID,24.4025,VALID,3,VALID,0,
2010-05-28, 03:36:04,VALID,1004.9,VALID,0,VALID,97.848,VALID,0,VALID,24.422,VALID,3,VALID,0,
2010-05-28, 03:37:04,VALID,1004.89,VALID,0,VALID,97.8709,VALID,0,VALID,24.422,VALID,3,VALID,0,
2010-05-28, 03:38:04,VALID,1004.88,VALID,0,VALID,97.848,VALID,0,VALID,24.5017,VALID,3,VALID,0,
2010-05-28, 03:39:04,VALID,1004.85,VALID,0,VALID,97.8251,VALID,0,VALID,24.5388,VALID,3,VALID,0,
2010-05-28, 03:40:04,VALID,1004.84,VALID,0,VALID,97.8022,VALID,0,VALID,24.5796,VALID,3,VALID,0,
2010-05-28, 03:41:04,VALID,1004.83,VALID,0,VALID,97.8022,VALID,0,VALID,24.5582,VALID,3,VALID,0,
2010-05-28, 03:42:04,VALID,1004.87,VALID,0,VALID,97.8328,VALID,0,VALID,24.5777,VALID,3,VALID,0,
2010-05-28, 03:43:04,VALID,1004.89,VALID,0,VALID,97.8022,VALID,0,VALID,24.6185,VALID,3,VALID,0,
2010-05-28, 03:44:04,VALID,1004.91,VALID,0,VALID,97.8328,VALID,0,VALID,24.5777,VALID,3,VALID,0.01875,